ZHONGXING-12

Last updated on Mon Oct 14 2024 00:02:39 GMT+0000 (Coordinated Universal Time)

1 39017U 12067A 24287.56758109 -.00000208 00000+0 00000+0 0 9999 2 39017 0.0347 93.3801 0002889 110.2350 110.8447 1.00270620 43379
UTC large
Height (km)
Speed (km/s)
/
Latitude / Longitude
Inclination (degrees)
Orbital Period (minutes)
Azimuth
Elevation
Range (km)
Doppler Factor

Next 0 passes for location: London (51.5072 / 0.1276)

Sorry there are no passes over London.